Satellite: NOAA-14
Catalog number: 23455
Epoch time: 10168.42510017
Element set: 92
Inclination: 098.8784 deg
RA of node: 249.1666 deg
Eccentricity: 0.0008604
Arg of perigee: 232.9485 deg
Mean anomaly: 127.0900 deg
Mean motion: 14.13787640 rev/day
Decay rate: -3.3e-07 rev/day^2
Epoch rev: 79753
Checksum: 309
Satellite: NOAA-15
Catalog number: 25338
Epoch time: 10168.29440627
Element set: 413
Inclination: 098.6187 deg
RA of node: 155.2168 deg
Eccentricity: 0.0011713
Arg of perigee: 075.7852 deg
Mean anomaly: 284.4646 deg
Mean motion: 14.24833839 rev/day
Decay rate: 9.6e-07 rev/day^2
Epoch rev: 62876
Checksum: 333
Satellite: RESURS
Catalog number: 25394
Epoch time: 10168.62887634
Element set: 530
Inclination: 098.3046 deg
RA of node: 186.6844 deg
Eccentricity: 0.0000795
Arg of perigee: 177.0222 deg
Mean anomaly: 183.0959 deg
Mean motion: 14.24203357 rev/day
Decay rate: 1.3e-07 rev/day^2
Epoch rev: 62041
Checksum: 293
Satellite: FENGYUN1
Catalog number: 25730
Epoch time: 10167.45280558
Element set: 0069
Inclination: 098.7861 deg
RA of node: 132.4274 deg
Eccentricity: 0.0021652
Arg of perigee: 274.6764 deg
Mean anomaly: 085.1938 deg
Mean motion: 14.08191823 rev/day
Decay rate: -4.37e-06 rev/day^2
Epoch rev: 57158
Checksum: 320
Satellite: OKEAN-0
Catalog number: 25860
Epoch time: 10167.53345325
Element set: 0023
Inclination: 097.8317 deg
RA of node: 140.2529 deg
Eccentricity: 0.0001896
Arg of perigee: 079.3599 deg
Mean anomaly: 280.7815 deg
Mean motion: 14.73644283 rev/day
Decay rate: 1.9e-07 rev/day^2
Epoch rev: 58680
Checksum: 316
Satellite: NOAA-16
Catalog number: 26536
Epoch time: 10168.29716711
Element set: 890
Inclination: 099.1699 deg
RA of node: 185.7684 deg
Eccentricity: 0.0010177
Arg of perigee: 341.9193 deg
Mean anomaly: 018.1586 deg
Mean motion: 14.12564315 rev/day
Decay rate: 9.7e-07 rev/day^2
Epoch rev: 50184
Checksum: 330
Satellite: NOAA-17
Catalog number: 27453
Epoch time: 10168.55824197
Element set: 891
Inclination: 098.4309 deg
RA of node: 218.9878 deg
Eccentricity: 0.0012578
Arg of perigee: 133.4255 deg
Mean anomaly: 226.7989 deg
Mean motion: 14.24165992 rev/day
Decay rate: -2.7e-07 rev/day^2
Epoch rev: 41475
Checksum: 354
Satellite: NOAA-18
Catalog number: 28654
Epoch time: 10168.58387968
Element set: 375
Inclination: 098.9510 deg
RA of node: 114.8470 deg
Eccentricity: 0.0015309
Arg of perigee: 054.3610 deg
Mean anomaly: 305.8970 deg
Mean motion: 14.11363194 rev/day
Decay rate: -1.41e-06 rev/day^2
Epoch rev: 26149
Checksum: 317
Satellite: NOAA-19
Catalog number: 33591
Epoch time: 10168.57193180
Element set: 572
Inclination: 098.7895 deg
RA of node: 110.6852 deg
Eccentricity: 0.0013205
Arg of perigee: 291.0145 deg
Mean anomaly: 068.9597 deg
Mean motion: 14.11059529 rev/day
Decay rate: -1.27e-06 rev/day^2
Epoch rev: 6996
Checksum: 329
/EX
SB KEPS @ AMSAT $ORB10168.M
Orbital Elements 10168.MISC
HR AMSAT ORBITAL ELEMENTS FOR MANNED AND MISCELLANEOUS SATELLITES
FROM WA5QGD FORT WORTH,TX June 17, 2010
Send Subscribe/unsubscribe to KEPS at http://www.amsat.org/mailman/listinfo/keps
BID: ORB10168.M
TO ALL RADIO AMATEURS BT
Satellite: HUBBLE
Catalog number: 20580
Epoch time: 10167.58213882
Element set: 585
Inclination: 028.4697 deg
RA of node: 243.8094 deg
Eccentricity: 0.0003506
Arg of perigee: 192.4456 deg
Mean anomaly: 167.6113 deg
Mean motion: 15.00986645 rev/day
Decay rate: 3.52e-06 rev/day^2
Epoch rev: 90466
Checksum: 309
Satellite: ISS
Catalog number: 25544
Epoch time: 10169.01628935
Element set: 342
Inclination: 051.6478 deg
RA of node: 226.3639 deg
Eccentricity: 0.0009002
Arg of perigee: 337.9392 deg
Mean anomaly: 086.0930 deg
Mean motion: 15.71871920 rev/day
Decay rate: 7.434e-05 rev/day^2
Epoch rev: 66360
Checksum: 303
Satellite: CO-58
Catalog number: 28895
Epoch time: 10167.70728776
Element set: 609
Inclination: 098.0163 deg
RA of node: 052.2010 deg
Eccentricity: 0.0016574
Arg of perigee: 288.4665 deg
Mean anomaly: 071.4761 deg
Mean motion: 14.59902138 rev/day
Decay rate: 3.49e-06 rev/day^2
Epoch rev: 24691
Checksum: 334
Satellite: FALCON
Catalog number: 30776
Epoch time: 10167.94915607
Element set: 0869
Inclination: 035.4341 deg
RA of node: 045.7357 deg
Eccentricity: 0.0001255
Arg of perigee: 239.7126 deg
Mean anomaly: 120.3554 deg
Mean motion: 15.03686878 rev/day
Decay rate: 3.75e-06 rev/day^2
Epoch rev: 18002
Checksum: 303
Satellite: MAST
Catalog number: 31126
Epoch time: 10167.60229238
Element set: 0891
Inclination: 097.9366 deg
RA of node: 209.6440 deg
Eccentricity: 0.0093701
Arg of perigee: 227.5533 deg
Mean anomaly: 131.7702 deg
Mean motion: 14.53594460 rev/day
Decay rate: 1.9e-07 rev/day^2
Epoch rev: 16797
Checksum: 302
Satellite: CAPE1
Catalog number: 31130
Epoch time: 10167.72226271
Element set: 0913
Inclination: 097.9372 deg
RA of node: 207.1747 deg
Eccentricity: 0.0101128
Arg of perigee: 234.6241 deg
Mean anomaly: 124.5421 deg
Mean motion: 14.52186200 rev/day
Decay rate: -7.1e-07 rev/day^2
Epoch rev: 16759
Checksum: 261
Satellite: COMPASS
Catalog number: 32787
Epoch time: 10167.15582752
Element set: 0699
Inclination: 097.8926 deg
RA of node: 231.9272 deg
Eccentricity: 0.0014826
Arg of perigee: 291.7834 deg
Mean anomaly: 068.1836 deg
Mean motion: 14.81889162 rev/day
Decay rate: 6.29e-06 rev/day^2
Epoch rev: 11534
Checksum: 343
Satellite: AAUSAT2
Catalog number: 32788
Epoch time: 10167.76662798
Element set: 0694
Inclination: 097.8918 deg
RA of node: 232.6568 deg
Eccentricity: 0.0014522
Arg of perigee: 290.3679 deg
Mean anomaly: 069.5974 deg
Mean motion: 14.82031610 rev/day
Decay rate: 3.27e-06 rev/day^2
Epoch rev: 11544
Checksum: 341
Satellite: DO-64
Catalog number: 32789
Epoch time: 10167.70807595
Element set: 0710
Inclination: 097.9008 deg
RA of node: 233.0718 deg
Eccentricity: 0.0014389
Arg of perigee: 287.8305 deg
Mean anomaly: 072.1306 deg
Mean motion: 14.82175495 rev/day
Decay rate: 5.25e-06 rev/day^2
Epoch rev: 11543
Checksum: 319
Satellite: CO-66
Catalog number: 32791
Epoch time: 10167.17760339
Element set: 0693
Inclination: 097.8967 deg
RA of node: 231.9653 deg
Eccentricity: 0.0014993
Arg of perigee: 289.9639 deg
Mean anomaly: 069.9930 deg
Mean motion: 14.81670525 rev/day
Decay rate: 9.0e-08 rev/day^2
Epoch rev: 11530
Checksum: 356
Satellite: RS-30
Catalog number: 32953
Epoch time: 10168.69276781
Element set: 793
Inclination: 082.5012 deg
RA of node: 029.3649 deg
Eccentricity: 0.0019808
Arg of perigee: 099.5096 deg
Mean anomaly: 260.8222 deg
Mean motion: 12.43005490 rev/day
Decay rate: 1.0e-07 rev/day^2
Epoch rev: 9380
Checksum: 303
Satellite: TACSAT-3
Catalog number: 35001
Epoch time: 10167.52797451
Element set: 0320
Inclination: 040.4545 deg
RA of node: 218.0737 deg
Eccentricity: 0.0021568
Arg of perigee: 356.9422 deg
Mean anomaly: 003.1259 deg
Mean motion: 15.41799269 rev/day
Decay rate: 2.541e-05 rev/day^2
Epoch rev: 06053
Checksum: 283
Satellite: PHARMSAT
Catalog number: 35002
Epoch time: 10167.54673035
Element set: 0301
Inclination: 040.4682 deg
RA of node: 215.9560 deg
Eccentricity: 0.0024779
Arg of perigee: 001.3421 deg
Mean anomaly: 358.7457 deg
Mean motion: 15.42325663 rev/day
Decay rate: 2.317e-05 rev/day^2
Epoch rev: 06055
Checksum: 267
Satellite: HAWKSAT1
Catalog number: 35003
Epoch time: 10167.52166111
Element set: 317
Inclination: 040.4598 deg
RA of node: 210.9353 deg
Eccentricity: 0.0022423
Arg of perigee: 015.1839 deg
Mean anomaly: 344.9649 deg
Mean motion: 15.45413543 rev/day
Decay rate: 4.977e-05 rev/day^2
Epoch rev: 6061
Checksum: 276
Satellite: CP6
Catalog number: 35004
Epoch time: 10167.51896916
Element set: 313
Inclination: 040.4601 deg
RA of node: 210.0296 deg
Eccentricity: 0.0021372
Arg of perigee: 018.3141 deg
Mean anomaly: 341.8443 deg
Mean motion: 15.46239686 rev/day
Decay rate: 6.047e-05 rev/day^2
Epoch rev: 6061
Checksum: 268
Satellite: AEROCUB3
Catalog number: 35005
Epoch time: 10168.21895073
Element set: 347
Inclination: 040.4683 deg
RA of node: 203.3273 deg
Eccentricity: 0.0016670
Arg of perigee: 038.4642 deg
Mean anomaly: 321.7511 deg
Mean motion: 15.51394789 rev/day
Decay rate: 1.9982e-04 rev/day^2
Epoch rev: 6075
Checksum: 299
Satellite: DRAGNSAT
Catalog number: 35690
Epoch time: 10076.22711312
Element set: 316
Inclination: 051.6170 deg
RA of node: 315.4586 deg
Eccentricity: 0.0004999
Arg of perigee: 310.9891 deg
Mean anomaly: 057.3269 deg
Mean motion: 16.42150010 rev/day
Decay rate: 5.715194e-02 rev/day^2
Epoch rev: 3656
Checksum: 289
Satellite: POLLUX
Catalog number: 35693
Epoch time: 10087.99866888
Element set: 352
Inclination: 051.6099 deg
RA of node: 254.5746 deg
Eccentricity: 0.0006270
Arg of perigee: 294.4866 deg
Mean anomaly: 097.5899 deg
Mean motion: 16.52338462 rev/day
Decay rate: 2.3496735e-01 rev/day^2
Epoch rev: 3839
Checksum: 384
Satellite: CASTOR
Catalog number: 35694
Epoch time: 10168.57986052
Element set: 476
Inclination: 051.6335 deg
RA of node: 198.0248 deg
Eccentricity: 0.0002513
Arg of perigee: 009.0723 deg
Mean anomaly: 351.0341 deg
Mean motion: 16.02722851 rev/day
Decay rate: 9.2287e-04 rev/day^2
Epoch rev: 5112
Checksum: 284
Satellite: METEOR-M
Catalog number: 35865
Epoch time: 10168.69724727
Element set: 393
Inclination: 098.7585 deg
RA of node: 222.4926 deg
Eccentricity: 0.0003074
Arg of perigee: 019.1762 deg
Mean anomaly: 340.9482 deg
Mean motion: 14.21830590 rev/day
Decay rate: 1.76e-06 rev/day^2
Epoch rev: 3879
Checksum: 325
